Flag for U.S.A. Weather past 2 weeks in Newport News, Virginia, U.S.A.

Now
31 °F

Sunny.


Feels Like: 31 °F
Forecast: 31 / 47 °F
Wind: No wind

Location: Newport News / Williamsburg International Airport

Current Time: Dec 19, 2014 at 8:42:50 AM

Latest Report: Dec 19, 2014 at 7:54 AM


Visibility: 10 mi

Pressure: 30.16 "Hg

Humidity: 82%

Dew point: 26 °F

Location of Newport NewsLocation

Historic Weather in Newport News — Graph

°F

Newport News temperature yesterday

Maximum temperature yesterday: 49 °F (at 12:54 PM)
Minimum temperature yesterday: 34 °F (at 9:54 PM)
Average temperature yesterday: 41 °F

Past Weeks' High & Low Weather Summary

 TemperatureHumidityPressure
High62 °F (Dec 17, 12:54 PM)90% (Dec 6, 5:54 PM)30.51 "Hg (Dec 6, 5:54 PM)
Low30 °F (Dec 13, 12:54 AM)30% (Dec 12, 12:54 PM)29.80 "Hg (Dec 10, 1:54 PM)
Average45 °F65%30.11 "Hg
* Reported Dec 4 7:54 AM — Dec 19 7:54 AM, Newport News, Weather by CustomWeather, © 2014

Note: Actual official high and low records may vary slightly from our data, if they occured in-between our weather recording intervals... More about our weather records

Advertising

Newport News weather history for previous 24 hours

 ConditionsComfort  
Time TempWeatherWind HumidityBarometerVisibility
7:54 AM
Dec 19
31 °FSunny.No wind82%30.16 "Hg10 mi
6:54 AM32 °FPassing clouds.No wind75%30.14 "Hg10 mi
5:54 AM30 °FPassing clouds.No wind79%30.12 "Hg10 mi
4:54 AM30 °FClear.3 mph82%30.11 "Hg10 mi
3:54 AM31 °FPassing clouds.3 mph82%30.11 "Hg10 mi
2:54 AM32 °FClear.3 mph79%30.11 "Hg10 mi
1:54 AM33 °FPassing clouds.No wind75%30.12 "Hg10 mi
12:54 AM35 °FClear.5 mph72%30.12 "Hg10 mi
11:54 PM
Dec 18
38 °FPassing clouds.No wind68%30.11 "Hg10 mi
10:54 PM36 °FOvercast.No wind75%30.09 "Hg10 mi
9:54 PM34 °FPassing clouds.No wind73%30.11 "Hg10 mi
8:54 PM35 °FClear.3 mph70%30.11 "Hg10 mi
7:54 PM36 °FClear.No wind64%30.11 "Hg10 mi
6:54 PM37 °FClear.No wind65%30.10 "Hg10 mi
5:54 PM41 °FClear.5 mph53%30.09 "Hg10 mi
4:54 PM43 °FClear.5 mph49%30.09 "Hg10 mi
3:54 PM47 °FSunny.7 mph39%30.09 "Hg10 mi
2:54 PM48 °FSunny.8 mph37%30.09 "Hg10 mi
1:54 PM48 °FSunny.10 mph39%30.09 "Hg10 mi
12:54 PM49 °FSunny.10 mph36%30.10 "Hg10 mi
11:54 AM47 °FSunny.6 mph39%30.14 "Hg10 mi
10:54 AM46 °FSunny.10 mph40%30.17 "Hg10 mi
9:54 AM43 °FSunny.9 mph45%30.18 "Hg10 mi
8:54 AM41 °FSunny.7 mph49%30.18 "Hg10 mi
Weather by CustomWeather, © 2014

See weather overviewHow to use our weather pages